TimeEDT,TemperatureF,Dew PointF,Humidity,Sea Level PressureIn,VisibilityMPH,Wind Direction,Wind SpeedMPH,Gust SpeedMPH,PrecipitationIn,Events,Conditions,WindDirDegrees,DateUTC
12:53 AM,79.0,73.0,82,29.99,10.0,SW,4.6,-,N/A,,Clear,220,2013-08-30 04:53:00
1:53 AM,81.0,73.0,77,29.98,10.0,West,3.5,-,N/A,,Clear,280,2013-08-30 05:53:00
2:53 AM,78.1,73.0,84,29.96,10.0,Calm,Calm,-,N/A,,Clear,0,2013-08-30 06:53:00
3:53 AM,79.0,73.9,84,29.96,10.0,Calm,Calm,-,N/A,,Scattered Clouds,0,2013-08-30 07:53:00
4:53 AM,81.0,73.9,79,29.95,10.0,NW,5.8,-,N/A,,Partly Cloudy,320,2013-08-30 08:53:00
5:24 AM,80.6,73.4,79,29.95,10.0,NNW,4.6,-,N/A,,Mostly Cloudy,330,2013-08-30 09:24:00
5:34 AM,80.6,73.4,79,29.95,10.0,NW,3.5,-,N/A,,Scattered Clouds,310,2013-08-30 09:34:00
5:53 AM,81.0,73.0,77,29.94,10.0,NW,3.5,-,N/A,,Scattered Clouds,320,2013-08-30 09:53:00
6:06 AM,80.6,73.4,79,29.95,10.0,NNW,4.6,-,N/A,,Scattered Clouds,330,2013-08-30 10:06:00
6:53 AM,81.0,73.0,77,29.95,10.0,NW,3.5,-,N/A,,Scattered Clouds,320,2013-08-30 10:53:00
7:53 AM,79.0,73.9,84,29.99,10.0,Calm,Calm,-,N/A,,Scattered Clouds,0,2013-08-30 11:53:00
8:53 AM,82.0,75.0,79,30.01,10.0,Calm,Calm,-,N/A,,Mostly Cloudy,0,2013-08-30 12:53:00
9:53 AM,84.9,73.9,69,30.01,10.0,SSE,4.6,-,N/A,,Mostly Cloudy,150,2013-08-30 13:53:00
10:53 AM,86.0,75.0,70,30.02,10.0,ESE,8.1,-,N/A,,Mostly Cloudy,120,2013-08-30 14:53:00
11:53 AM,87.1,73.9,65,30.00,10.0,South,4.6,-,N/A,,Mostly Cloudy,180,2013-08-30 15:53:00
12:53 PM,88.0,73.9,63,29.99,10.0,SSW,6.9,-,N/A,,Scattered Clouds,200,2013-08-30 16:53:00
1:53 PM,88.0,73.9,63,29.97,10.0,North,5.8,-,N/A,,Scattered Clouds,360,2013-08-30 17:53:00
2:53 PM,90.0,73.9,59,29.96,9.0,NNW,5.8,-,N/A,,Scattered Clouds,330,2013-08-30 18:53:00
3:53 PM,87.1,73.9,65,29.95,10.0,South,6.9,-,N/A,,Scattered Clouds,190,2013-08-30 19:53:00
4:53 PM,87.1,73.9,65,29.93,10.0,Variable,3.5,-,N/A,,Scattered Clouds,0,2013-08-30 20:53:00
5:53 PM,84.9,73.0,67,29.93,10.0,SSW,6.9,-,N/A,,Scattered Clouds,200,2013-08-30 21:53:00
6:53 PM,84.0,73.0,69,29.94,10.0,South,5.8,-,N/A,,Scattered Clouds,180,2013-08-30 22:53:00
7:53 PM,82.9,72.0,69,29.94,10.0,SSE,3.5,-,N/A,,Scattered Clouds,160,2013-08-30 23:53:00
8:53 PM,82.9,75.0,77,29.95,10.0,SSE,6.9,-,N/A,,Scattered Clouds,150,2013-08-31 00:53:00
9:53 PM,82.0,73.9,76,29.95,10.0,South,5.8,-,N/A,,Scattered Clouds,170,2013-08-31 01:53:00
10:53 PM,82.0,73.0,74,29.96,10.0,South,5.8,-,N/A,,Clear,180,2013-08-31 02:53:00
11:53 PM,82.0,73.0,74,29.96,10.0,South,3.5,-,N/A,,Clear,180,2013-08-31 03:53:00